Home > Weather > Providence > Past weeks

Flag for U.S.A. Weather for the Past 2 Weeks in Providence, Rhode Island, U.S.A.

Now
30 °F

Partly sunny.


Feels Like: 22 °F
Forecast: 19 / 31 °F
Wind: 9 mph from Northeast

Location: Green State Airport

Current Time: Feb 9, 2016 at 4:34:15 PM

Latest Report: Feb 9, 2016 at 3:51 PM


Visibility: 10 mi

Pressure: 29.59 "Hg

Humidity: 66%

Dew point: 20 °F

Location of ProvidenceLocation

Historic Weather in Providence — Graph

°F

Providence Temperature Yesterday

Maximum temperature yesterday: 37 °F (at 1:51 AM)
Minimum temperature yesterday: 20 °F (at 11:51 AM)
Average temperature yesterday: 26 °F

High & Low Weather Summary for the Past Weeks

 TemperatureHumidityPressure
High66 °F (Feb 1, 12:51 PM)100% (Jan 26, 6:51 AM)30.41 "Hg (Jan 26, 6:51 AM)
Low17 °F (Feb 6, 3:51 AM)30% (Feb 1, 4:51 PM)29.37 "Hg (Jan 29, 12:51 PM)
Average38 °F70%29.98 "Hg
* Reported Jan 25 2:51 PM — Feb 9 2:51 PM, Providence, Weather by CustomWeather, © 2016

Note: Actual official high and low records may vary slightly from our data, if they occured in-between our weather recording intervals... More about our weather records

Advertising

Providence Weather History for the Previous 24 Hours

 ConditionsComfort  
Time TempWeatherWind HumidityBarometerVisibility
2:51 PM
Tue, Feb 9
30 °FPartly sunny.8 mph66%29.58 "Hg10 mi
1:51 PM29 °FOvercast.10 mph69%29.58 "Hg10 mi
12:51 PM29 °FOvercast.8 mph69%29.60 "Hg10 mi
11:51 AM27 °FPartly sunny.12 mph75%29.63 "Hg10 mi
10:51 AM25 °FPartly sunny.10 mph78%29.66 "Hg10 mi
9:51 AM23 °FBroken clouds.12 mph78%29.70 "Hg10 mi
8:51 AM22 °FOvercast.9 mph82%29.70 "Hg10 mi
7:51 AM21 °FOvercast.7 mph81%29.72 "Hg10 mi
6:51 AM21 °FOvercast.7 mph81%29.72 "Hg10 mi
6:01 AM20 °FMostly cloudy.15 mph82%29.66 "Hg10 mi
4:51 AM21 °FOvercast.8 mph81%29.74 "Hg10 mi
3:51 AM21 °FLight snow. Mostly cloudy.14 mph78%29.72 "Hg8 mi
2:51 AM21 °FLight snow. Overcast.10 mph78%29.75 "Hg9 mi
1:51 AM21 °FLight snow. Overcast.9 mph78%29.77 "Hg9 mi
12:51 AM22 °FLight snow. Overcast.9 mph78%29.76 "Hg9 mi
11:51 PM
Mon, Feb 8
21 °FOvercast.15 mph78%29.77 "Hg10 mi
10:51 PM21 °FLight snow. Overcast.13 mph81%29.79 "Hg4 mi
9:51 PM21 °FLight snow. Overcast.14 mph81%29.79 "Hg2 mi
8:51 PM21 °FLight snow. Ice fog.15 mph85%29.79 "Hg2 mi
7:51 PM21 °FLight snow. Ice fog.16 mph85%29.77 "Hg1 mi
6:51 PM21 °FLight snow. Ice fog.14 mph85%29.77 "Hg2 mi
5:51 PM21 °FLight snow. Ice fog.16 mph85%29.74 "Hg1 mi
4:51 PM22 °FLight snow. Ice fog.17 mph82%29.72 "Hg1 mi
Weather by CustomWeather, © 2016

See weather overviewHow to use our weather pages